KD5NDU-15 Weather Reports


time (UTC)temp
F
wind
direction
speed
knots
gust
knots
rain 1hr
in
rain 24hr
in
rain mn
in
humidity
%
barometer
mb
20260903165634 97 68 1.7 4.3 0.00 0.00 0.00 56 1016.6
20260903165134 98 59 1.7 4.3 0.00 0.00 0.00 55 1016.7
20260903164634 98 150 1.7 2.6 0.00 0.00 0.00 56 1016.7
20260903164134 97 244 2.6 5.2 0.00 0.00 0.00 56 1016.8
20260903163634 96 174 2.6 6.1 0.00 0.00 0.00 57 1017.0
20260903163134 96 178 2.6 7.0 0.00 0.00 0.00 58 1017.0
20260903162634 96 161 2.6 7.0 0.00 0.00 0.00 59 1017.1
20260903162134 95 237 2.6 5.2 0.00 0.00 0.00 61 1017.0
20260903161634 95 248 2.6 5.2 0.00 0.00 0.00 60 1017.0
20260903161134 96 238 3.5 4.3 0.00 0.00 0.00 61 1017.0
20260903160634 95 188 3.5 4.3 0.00 0.00 0.00 62 1017.2
20260903160134 96 238 1.7 5.2 0.00 0.00 0.00 61 1017.1
20260903155634 97 210 0.9 2.6 0.00 0.00 0.00 60 1017.0
20260903155134 96 200 1.7 3.5 0.00 0.00 0.00 61 1016.9
20260903154634 97 107 0.9 3.5 0.00 0.00 0.00 60 1016.9
20260903154134 97 37 0.9 1.7 0.00 0.00 0.00 61 1016.9
20260903153634 96 54 0.9 2.6 0.00 0.00 0.00 60 1017.0
20260903153134 96 10 0.9 2.6 0.00 0.00 0.00 62 1017.0
20260903152634 96 1 0.9 1.7 0.00 0.00 0.00 62 1017.1
20260903152134 95 1 0.9 1.7 0.00 0.00 0.00 66 1017.0
20260903151634 94 8 0.0 0.9 0.00 0.00 0.00 66 1017.0
20260903151135 94 13 0.9 2.6 0.00 0.00 0.00 66 1017.0
20260903150635 94 262 0.9 3.5 0.00 0.00 0.00 67 1017.0
20260903150135 94 337 0.9 1.7 0.00 0.00 0.00 67 1017.1
20260903145635 93 336 0.9 1.7 0.00 0.00 0.00 68 1017.1
20260903145135 93 340 0.9 1.7 0.00 0.00 0.00 68 1017.1
20260903144635 92 353 0.0 1.7 0.00 0.00 0.00 69 1017.1
20260903144135 91 224 0.0 1.7 0.00 0.00 0.00 71 1017.1
20260903143635 91 224 0.0 1.7 0.00 0.00 0.00 72 1017.0
20260903143135 90 217 0.0 0.9 0.00 0.00 0.00 74 1017.2
20260903142635 89 218 0.9 0.9 0.00 0.00 0.00 75 1017.1
20260903142135 88 218 0.9 2.6 0.00 0.00 0.00 75 1017.1
20260903141635 88 210 0.9 2.6 0.00 0.00 0.00 75 1017.1
20260903141135 87 206 0.9 2.6 0.00 0.00 0.00 76 1017.2
20260903140635 87 205 0.9 2.6 0.00 0.00 0.00 77 1017.3
20260903140135 86 211 0.9 2.6 0.00 0.00 0.00 77 1017.3
20260903135635 85 224 0.9 1.7 0.00 0.00 0.00 79 1017.3
20260903135135 85 224 0.9 2.6 0.00 0.00 0.00 79 1017.4
20260903134635 84 221 0.9 1.7 0.00 0.00 0.00 80 1017.3
20260903134135 84 222 0.9 1.7 0.00 0.00 0.00 82 1017.1
20260903133635 83 222 0.0 1.7 0.00 0.00 0.00 84 1017.2
20260903133135 82 222 0.0 0.9 0.00 0.00 0.00 86 1017.3
20260903132635 81 222 0.0 0.0 0.00 0.00 0.00 88 1017.2
20260903132135 80 222 0.9 1.7 0.00 0.00 0.00 88 1017.2
20260903131635 79 222 0.9 1.7 0.00 0.00 0.00 89 1017.3
20260903131135 78 222 0.9 2.6 0.00 0.00 0.00 89 1017.3
20260903130635 78 222 0.0 1.7 0.00 0.00 0.00 91 1017.1
20260903130135 77 222 0.0 0.9 0.00 0.00 0.00 92 1017.1
20260903125635 76 222 0.0 0.9 0.00 0.00 0.00 92 1017.1
20260903125135 75 222 0.0 0.0 0.00 0.00 0.00 93 1017.1
20260903124635 75 222 0.0 0.0 0.00 0.00 0.00 93 1017.1
20260903124135 75 222 0.0 0.9 0.00 0.00 0.00 94 1017.2
20260903123635 74 222 0.0 0.0 0.00 0.00 0.00 94 1017.1
20260903123135 74 222 0.0 0.0 0.00 0.00 0.00 94 1017.1
20260903122635 74 222 0.0 0.0 0.00 0.00 0.00 94 1017.0
20260903122135 74 222 0.0 0.0 0.00 0.00 0.00 94 1016.8
20260903121635 73 222 0.0 0.0 0.00 0.00 0.00 94 1016.8
20260903121135 73 222 0.0 0.9 0.00 0.00 0.00 94 1016.8
20260903120635 73 222 0.0 0.9 0.00 0.00 0.00 94 1016.8
20260903120135 73 222 0.9 0.9 0.00 0.00 0.00 94 1016.7
20260903115635 73 222 0.9 2.6 0.00 0.00 0.00 93 1016.6
20260903115135 74 222 0.0 2.6 0.00 0.00 0.00 93 1016.6
20260903114635 74 221 0.0 0.9 0.00 0.00 0.00 93 1016.4
20260903114135 73 221 0.0 0.0 0.00 0.00 0.00 93 1016.4
20260903113635 73 221 0.0 0.0 0.00 0.00 0.00 94 1016.3
20260903113135 73 221 0.0 0.0 0.00 0.00 0.00 94 1016.4
20260903112635 73 221 0.9 0.9 0.00 0.00 0.00 94 1016.4
20260903112135 73 221 0.9 3.5 0.00 0.00 0.00 94 1016.3
20260903111635 73 221 0.0 3.5 0.00 0.00 0.00 93 1016.2
20260903111135 73 219 0.0 0.9 0.00 0.00 0.00 93 1016.3
20260903110635 73 219 0.0 1.7 0.00 0.00 0.00 92 1016.2
20260903110135 74 219 0.0 2.6 0.00 0.00 0.00 91 1016.3
20260903105635 75 191 0.0 0.0 0.00 0.00 0.00 91 1016.1
20260903105135 75 191 0.0 0.0 0.00 0.00 0.00 91 1016.0
20260903104635 75 191 0.0 0.0 0.00 0.00 0.00 91 1016.0
20260903104135 75 191 0.0 0.0 0.00 0.00 0.00 91 1016.1
20260903103635 75 191 0.0 0.0 0.00 0.00 0.00 91 1016.0
20260903103135 75 191 0.0 0.0 0.00 0.00 0.00 91 1016.1
20260903102635 75 191 0.0 0.0 0.00 0.00 0.00 91 1016.0
20260903102135 75 191 0.0 0.0 0.00 0.00 0.00 91 1016.0
20260903101635 75 191 0.0 0.0 0.00 0.00 0.00 91 1016.1
20260903101135 75 191 0.0 0.0 0.00 0.00 0.00 91 1016.0
20260903100635 75 191 0.0 0.0 0.00 0.00 0.00 91 1016.0
20260903100135 75 191 0.0 0.0 0.00 0.00 0.00 91 1016.0
20260903095635 75 191 0.0 0.0 0.00 0.00 0.00 91 1016.0
20260903095135 75 191 0.0 0.0 0.00 0.00 0.00 91 1015.9
20260903094635 75 191 0.0 0.0 0.00 0.00 0.00 90 1015.8
20260903094135 75 191 0.0 0.0 0.00 0.00 0.00 90 1015.8
20260903093635 75 191 0.0 0.0 0.00 0.00 0.00 90 1015.9
20260903093135 75 191 0.0 0.0 0.00 0.00 0.00 91 1015.9
20260903092635 75 191 0.0 0.0 0.00 0.00 0.00 91 1015.9
20260903092135 75 191 0.0 0.0 0.00 0.00 0.00 91 1015.8
20260903091635 75 191 0.0 0.0 0.00 0.00 0.00 90 1015.8
20260903091135 75 191 0.0 0.0 0.00 0.00 0.00 91 1015.8
20260903090635 75 191 0.0 0.0 0.00 0.00 0.00 90 1015.7
20260903090135 75 191 0.0 0.0 0.00 0.00 0.00 90 1015.7
20260903085635 75 191 0.0 0.0 0.00 0.00 0.00 90 1015.8
20260903085135 76 191 0.0 0.0 0.00 0.00 0.00 90 1015.9
20260903084635 76 191 0.0 0.0 0.00 0.00 0.00 90 1015.8
20260903084135 76 197 0.0 0.0 0.00 0.00 0.00 89 1015.9
20260903083635 76 197 0.0 0.0 0.00 0.00 0.00 89 1015.9
20260903083135 76 197 0.0 0.0 0.00 0.00 0.00 89 1015.8
20260903082635 76 197 0.0 0.0 0.00 0.00 0.00 89 1015.9
20260903082135 76 197 0.0 0.0 0.00 0.00 0.00 90 1015.9
20260903081635 76 197 0.0 0.0 0.00 0.00 0.00 89 1015.9
20260903081135 76 197 0.0 0.0 0.00 0.00 0.00 88 1015.8
20260903080635 76 197 0.0 0.0 0.00 0.00 0.00 88 1015.8
20260903080135 76 197 0.0 0.0 0.00 0.00 0.00 88 1015.8
20260903075635 76 197 0.0 0.0 0.00 0.00 0.00 88 1015.8
20260903075135 76 197 0.0 0.0 0.00 0.00 0.00 88 1015.8
20260903074635 76 197 0.0 0.0 0.00 0.00 0.00 88 1015.9
20260903074135 76 197 0.0 0.0 0.00 0.00 0.00 88 1015.8
20260903073635 76 197 0.0 0.0 0.00 0.00 0.00 88 1015.8
20260903073135 76 197 0.0 0.0 0.00 0.00 0.00 88 1015.9
20260903072635 76 197 0.0 0.0 0.00 0.00 0.00 88 1016.0
20260903072135 76 197 0.0 0.0 0.00 0.00 0.00 88 1016.0
20260903071635 76 197 0.0 0.0 0.00 0.00 0.00 88 1016.0
20260903071135 76 197 0.0 0.0 0.00 0.00 0.00 89 1016.1
20260903070635 77 197 0.0 0.0 0.00 0.00 0.00 88 1016.0
20260903070135 77 197 0.0 0.0 0.00 0.00 0.00 88 1016.1
20260903065635 77 197 0.0 0.0 0.00 0.00 0.00 87 1016.1
20260903065135 77 197 0.0 0.0 0.00 0.00 0.00 87 1016.1
20260903064635 77 197 0.0 0.0 0.00 0.00 0.00 87 1016.2
20260903064135 77 197 0.0 0.0 0.00 0.00 0.00 87 1016.2
20260903063635 77 197 0.0 0.0 0.00 0.00 0.00 87 1016.2
20260903063135 78 197 0.0 0.0 0.00 0.00 0.00 86 1016.2
20260903062635 78 197 0.0 0.0 0.00 0.00 0.00 87 1016.2
20260903062135 78 197 0.0 0.0 0.00 0.00 0.00 86 1016.3
20260903061635 78 197 0.0 0.0 0.00 0.00 0.00 87 1016.3
20260903061135 78 197 0.0 0.0 0.00 0.00 0.00 85 1016.3
20260903060635 78 197 0.0 0.0 0.00 0.00 0.00 86 1016.2
20260903060135 78 197 0.0 0.0 0.00 0.00 0.00 86 1016.3
20260903055635 78 197 0.0 0.0 0.00 0.00 0.00 85 1016.4
20260903055135 78 197 0.0 0.0 0.00 0.00 0.00 85 1016.4
20260903054635 78 197 0.0 0.0 0.00 0.00 0.00 84 1016.3
20260903054135 78 197 0.0 0.0 0.00 0.00 0.00 84 1016.3
20260903053635 78 197 0.0 0.0 0.00 0.00 0.00 85 1016.3
20260903053135 78 197 0.0 0.0 0.00 0.00 0.00 85 1016.3
20260903052635 78 197 0.0 0.0 0.00 0.00 0.00 85 1016.2
20260903052135 78 197 0.0 0.0 0.00 0.00 0.00 84 1016.1
20260903051635 78 197 0.0 0.0 0.00 0.00 0.00 84 1016.2
20260903051135 78 197 0.0 0.0 0.00 0.00 0.00 84 1016.2
20260903050635 79 197 0.0 0.0 0.00 0.00 0.00 84 1016.2
20260903050135 79 197 0.0 0.0 0.00 0.00 0.00 83 1016.2
20260903045635 79 197 0.0 0.0 0.00 0.00 0.00 83 1016.1
20260903045135 79 197 0.0 0.0 0.00 0.00 0.00 83 1016.0
20260903044635 79 197 0.0 0.0 0.00 0.00 0.00 82 1016.0
20260903044135 80 197 0.0 0.0 0.00 0.00 0.00 82 1016.0
20260903043635 80 197 0.0 0.0 0.00 0.00 0.00 81 1015.9
20260903043135 80 197 0.0 0.0 0.00 0.00 0.00 80 1016.0
20260903042635 80 197 0.0 0.0 0.00 0.00 0.00 81 1016.0
20260903042135 81 197 0.0 0.0 0.00 0.00 0.00 79 1016.1
20260903041635 81 197 0.0 0.0 0.00 0.00 0.00 79 1016.1
20260903041135 81 197 0.0 0.0 0.00 0.00 0.00 79 1016.2
20260903040635 81 197 0.0 0.0 0.00 0.00 0.00 79 1016.1
20260903040135 81 197 0.0 0.0 0.00 0.00 0.00 79 1016.2
20260903035635 81 197 0.0 0.0 0.00 0.00 0.00 78 1016.2
20260903035135 81 197 0.0 0.0 0.00 0.00 0.00 78 1016.2
20260903034635 81 197 0.0 0.0 0.00 0.00 0.00 78 1016.1
20260903034135 81 197 0.0 0.0 0.00 0.00 0.00 78 1016.1
20260903033635 81 197 0.0 0.0 0.00 0.00 0.00 79 1016.2
20260903033135 81 197 0.0 0.9 0.00 0.00 0.00 79 1016.3
20260903032635 81 197 0.0 0.0 0.00 0.00 0.00 78 1016.4
20260903032135 81 197 0.0 0.0 0.00 0.00 0.00 78 1016.4
20260903031635 81 197 0.0 0.0 0.00 0.00 0.00 78 1016.4
20260903031135 81 197 0.0 0.0 0.00 0.00 0.00 78 1016.3
20260903030635 81 197 0.0 0.9 0.00 0.00 0.00 78 1016.2
20260903030135 82 197 0.0 1.7 0.00 0.00 0.00 78 1016.1
20260903025635 83 198 0.0 1.7 0.00 0.00 0.00 76 1016.3
20260903025135 85 191 0.9 1.7 0.00 0.00 0.00 73 1016.2
20260903024635 85 189 0.9 2.6 0.00 0.00 0.00 70 1016.2
20260903024135 86 186 0.9 2.6 0.00 0.00 0.00 69 1016.1
20260903023635 86 173 0.9 1.7 0.00 0.00 0.00 69 1016.1
20260903023135 86 188 0.9 2.6 0.00 0.00 0.00 68 1016.2
20260903022635 86 186 0.9 2.6 0.00 0.00 0.00 68 1016.1
20260903022135 87 166 0.9 1.7 0.00 0.00 0.00 67 1016.2
20260903021635 87 165 0.0 2.6 0.00 0.00 0.00 67 1016.1
20260903021136 87 195 0.0 0.0 0.00 0.00 0.00 66 1016.2
20260903020636 87 195 0.9 1.7 0.00 0.00 0.00 66 1016.1
20260903020136 88 198 0.9 2.6 0.00 0.00 0.00 65 1015.9
20260903015636 88 210 0.9 1.7 0.00 0.00 0.00 65 1015.8
20260903015136 88 174 0.9 2.6 0.00 0.00 0.00 65 1015.7
20260903014636 88 199 0.9 1.7 0.00 0.00 0.00 64 1015.7
20260903014136 88 199 0.0 1.7 0.00 0.00 0.00 64 1015.7
20260903013636 89 200 0.0 0.9 0.00 0.00 0.00 64 1015.6
20260903013136 89 200 0.9 0.9 0.00 0.00 0.00 63 1015.6
20260903012636 89 200 0.9 0.9 0.00 0.00 0.00 63 1015.5
20260903012136 89 200 0.9 1.7 0.00 0.00 0.00 62 1015.3
20260903011636 89 202 0.9 2.6 0.00 0.00 0.00 63 1015.3
20260903011136 89 185 0.0 2.6 0.00 0.00 0.00 63 1015.4
20260903010636 89 201 0.0 1.7 0.00 0.00 0.00 62 1015.3
20260903010136 89 211 0.9 0.9 0.00 0.00 0.00 62 1015.3
20260903005636 90 211 1.7 1.7 0.00 0.00 0.00 61 1015.2
20260903005136 90 227 1.7 3.5 0.00 0.00 0.00 61 1015.2
20260903004636 90 216 0.9 3.5 0.00 0.00 0.00 60 1015.2
20260903004136 91 206 0.9 2.6 0.00 0.00 0.00 60 1015.2
20260903003636 91 194 0.9 2.6 0.00 0.00 0.00 59 1015.2
20260903003136 91 222 1.7 3.5 0.00 0.00 0.00 58 1015.2
20260903002636 92 203 1.7 2.6 0.00 0.00 0.00 57 1015.1
20260903002136 92 193 1.7 2.6 0.00 0.00 0.00 56 1015.1
20260903001636 93 210 0.9 2.6 0.00 0.00 0.00 55 1015.0
20260903001136 93 170 0.9 2.6 0.00 0.00 0.00 54 1015.0
20260903000636 94 167 0.9 2.6 0.00 0.00 0.00 53 1015.0
20260903000136 94 185 1.7 2.6 0.00 0.00 0.00 52 1015.2
20260902235636 94 185 1.7 2.6 0.00 0.00 0.00 51 1015.2
20260902235136 94 198 0.9 3.5 0.00 0.00 0.00 50 1015.2
20260902234636 95 198 1.7 2.6 0.00 0.00 0.00 50 1015.1
20260902234136 95 200 1.7 3.5 0.00 0.00 0.00 49 1015.2
20260902233636 95 203 1.7 4.3 0.00 0.00 0.00 49 1015.2
20260902233136 95 210 2.6 5.2 0.00 0.00 0.00 49 1015.2
20260902232636 96 146 2.6 4.3 0.00 0.00 0.00 49 1015.2
20260902232136 96 183 2.6 6.1 0.00 0.00 0.00 49 1015.2
20260902231636 96 195 2.6 5.2 0.00 0.00 0.00 49 1015.1
20260902231136 96 128 2.6 7.0 0.00 0.00 0.00 48 1015.1
20260902230636 97 203 2.6 6.1 0.00 0.00 0.00 47 1015.0
20260902230136 97 207 1.7 3.5 0.00 0.00 0.00 47 1015.1
20260902225636 97 183 1.7 4.3 0.00 0.00 0.00 47 1015.1
20260902225136 98 97 1.7 4.3 0.00 0.00 0.00 46 1015.1
20260902224636 98 155 1.7 4.3 0.00 0.00 0.00 47 1015.0
20260902224136 98 18 1.7 7.0 0.00 0.00 0.00 46 1015.1
20260902223636 98 44 1.7 3.5 0.00 0.00 0.00 46 1015.1
20260902223136 99 122 1.7 4.3 0.00 0.00 0.00 45 1015.1
20260902222636 99 122 1.7 4.3 0.00 0.00 0.00 45 1015.1
20260902222136 99 143 1.7 5.2 0.00 0.00 0.00 46 1015.2
20260902221636 100 163 1.7 6.1 0.00 0.00 0.00 45 1015.2
20260902221136 100 212 2.6 5.2 0.00 0.00 0.00 45 1015.1
20260902220636 100 141 2.6 7.8 0.00 0.00 0.00 45 1015.2
20260902220136 100 195 2.6 3.5 0.00 0.00 0.00 45 1015.1
20260902215636 101 110 1.7 5.2 0.00 0.00 0.00 45 1015.3
20260902215136 101 195 1.7 5.2 0.00 0.00 0.00 44 1015.2
20260902214636 101 214 1.7 4.3 0.00 0.00 0.00 46 1015.3
20260902214136 101 153 1.7 6.1 0.00 0.00 0.00 45 1015.3
20260902213636 101 69 1.7 5.2 0.00 0.00 0.00 45 1015.4
20260902213136 101 40 1.7 5.2 0.00 0.00 0.00 46 1015.3
20260902212636 100 218 2.6 6.1 0.00 0.00 0.00 46 1015.4
20260902212136 100 138 2.6 5.2 0.00 0.00 0.00 45 1015.3
20260902211636 100 73 1.7 3.5 0.00 0.00 0.00 46 1015.2
20260902211136 100 212 1.7 3.5 0.00 0.00 0.00 46 1015.3
20260902210636 99 1 1.7 5.2 0.00 0.00 0.00 47 1015.3
20260902210136 98 162 0.9 2.6 0.00 0.00 0.00 51 1015.4
20260902205636 98 172 0.9 3.5 0.00 0.00 0.00 48 1015.5
20260902205136 99 143 0.9 2.6 0.00 0.00 0.00 49 1015.5
20260902204636 99 103 1.7 4.3 0.00 0.00 0.00 49 1015.5
20260902204136 100 167 0.9 1.7 0.00 0.00 0.00 49 1015.6
20260902203636 98 18 0.0 1.7 0.00 0.00 0.00 51 1015.6
20260902203136 97 128 0.0 0.9 0.00 0.00 0.00 52 1015.6
20260902202636 97 139 0.9 1.7 0.00 0.00 0.00 52 1015.7
20260902202136 97 144 1.7 4.3 0.00 0.00 0.00 52 1015.7
20260902201636 97 165 1.7 4.3 0.00 0.00 0.00 51 1015.9
20260902201136 97 200 1.7 5.2 0.00 0.00 0.00 51 1015.9
20260902200636 98 136 1.7 4.3 0.00 0.00 0.00 51 1016.0
20260902200136 97 100 0.9 3.5 0.00 0.00 0.00 52 1016.1
20260902195636 97 103 0.9 2.6 0.00 0.00 0.00 51 1016.1
20260902195136 98 134 1.7 4.3 0.00 0.00 0.00 50 1016.2
20260902194636 99 151 1.7 4.3 0.00 0.00 0.00 49 1016.3
20260902194136 98 52 0.9 3.5 0.00 0.00 0.00 50 1016.4
20260902193636 97 89 0.9 2.6 0.00 0.00 0.00 51 1016.4
20260902193136 97 99 1.7 2.6 0.00 0.00 0.00 50 1016.6
20260902192636 98 186 1.7 4.3 0.00 0.00 0.00 50 1016.6
20260902192136 98 103 0.9 3.5 0.00 0.00 0.00 51 1016.7
20260902191636 98 193 1.7 3.5 0.00 0.00 0.00 49 1016.8
20260902191136 98 167 2.6 7.0 0.00 0.00 0.00 49 1016.8
20260902190636 98 82 1.7 6.1 0.00 0.00 0.00 50 1017.0
20260902190136 97 224 1.7 3.5 0.00 0.00 0.00 52 1017.1
20260902185636 96 236 2.6 3.5 0.00 0.00 0.00 53 1017.1
20260902185136 97 232 3.5 7.0 0.00 0.00 0.00 52 1017.3
20260902184636 98 238 2.6 5.2 0.00 0.00 0.00 50 1017.3
20260902184136 99 194 1.7 6.1 0.00 0.00 0.00 50 1017.4
20260902183636 98 164 2.6 5.2 0.00 0.00 0.00 50 1017.3
20260902183136 98 96 1.7 5.2 0.00 0.00 0.00 52 1017.4
20260902182636 99 108 0.9 3.5 0.00 0.00 0.00 52 1017.4
20260902182136 98 243 0.9 2.6 0.00 0.00 0.00 55 1017.5
20260902181636 97 65 0.9 3.5 0.00 0.00 0.00 55 1017.6
20260902181136 97 211 0.9 1.7 0.00 0.00 0.00 54 1017.7
20260902180636 97 225 0.9 2.6 0.00 0.00 0.00 55 1017.7
20260902180136 96 27 0.9 3.5 0.00 0.00 0.00 59 1017.8
20260902175636 95 86 0.9 4.3 0.00 0.00 0.00 57 1017.9
20260902175136 95 155 0.9 3.5 0.00 0.00 0.00 57 1017.9
20260902174636 95 172 0.0 1.7 0.00 0.00 0.00 57 1018.0
20260902174136 95 182 0.9 1.7 0.00 0.00 0.00 57 1018.2
20260902173636 96 179 0.9 2.6 0.00 0.00 0.00 56 1018.3
20260902173136 96 179 0.0 2.6 0.00 0.00 0.00 56 1018.4
20260902172636 96 174 0.9 1.7 0.00 0.00 0.00 56 1018.4
20260902172136 96 153 1.7 3.5 0.00 0.00 0.00 56 1018.5
20260902171636 96 204 1.7 3.5 0.00 0.00 0.00 57 1018.5
20260902171136 96 250 1.7 5.2 0.00 0.00 0.00 56 1018.6
20260902170636 96 295 1.7 4.3 0.00 0.00 0.00 57 1018.6
20260902170136 96 234 2.6 6.1 0.00 0.00 0.00 55 1018.7